Regional Weather Roundup
Issued by NWS

Home | Current Version | Previous Version | Text Only | Print | Product List | Glossary On
Versions: 1 2 3 4 5 6 7 8 9 10 11 12 13 14 15 16 17 18 19 20 21 22 23 24 25 26 27 28 29 30 31 32 33 34 35 36 37 38 39 40 41 42 43 44 45 46 47 48 49 50
972
ASUS45 KTFX 250310
RWRMT
MONTANA REGIONAL WEATHER ROUNDUP
NATIONAL WEATHER SERVICE GREAT FALLS MT
900 PM MDT MON JUL 24 2017

NOTE: "FAIR" INDICATES FEW OR NO CLOUDS BELOW 12000 FEET WITH NO
SIGNIFICANT WEATHER AND/OR OBSTRUCTIONS TO VISIBILITY.

MTZ001>007-043-250400-
WEST OF THE DIVIDE

CITY           SKY/WX    TMP DP  RH WIND       PRES   REMARKS
KALISPELL      CLEAR     77  26  15 VRB5      29.89R
MISSOULA       MOCLDY    79  31  17 N6        29.90R
BUTTE          PTCLDY    80  29  15 NW10      30.03R
MULLAN PASS    CLEAR     65  28  24 NW6       30.11F
ANACONDA         N/A     75  30  19 W6        30.00R
DEER LODGE       N/A     75  34  22 NW13      29.98S
EUREKA           N/A     79  30  17 MISG      29.90R
HAMILTON         N/A     81  43  26 CALM      29.93R
LIBBY            N/A     79  30  17 CALM      29.89R
PLAINS           N/A     82  37  20 W3        29.90R
$$

MTZ008-052>055-250400-
SOUTHWEST MONTANA

CITY           SKY/WX    TMP DP  RH WIND       PRES   REMARKS
BOZEMAN        CLOUDY    74  47  38 E9        29.97R
DILLON         PTCLDY    69  48  47 SW8       30.01R
ENNIS          CLEAR     73  39  29 S5        30.11R
THREE FORKS      N/A     77  46  33 SW12      29.95R
TWIN BRIDGES     N/A     77  40  26 E8        30.00S
$$

MTZ009-010-012-014-046-048-049-054-250400-
EAST SLOPES AND CENTRAL MONTANA

CITY           SKY/WX    TMP DP  RH WIND       PRES   REMARKS
CUT BANK       CLEAR     68  38  33 NE13      29.96R
GREAT FALLS    CLOUDY    79  45  29 NE14      29.89R
HELENA         PTCLDY    83  33  16 W10       29.89R
CHOTEAU          N/A     73  43  33 NE10      29.94R
$$

MTZ011-013-016-021-045-047-050-051-250400-
NORTH CENTRAL MONTANA

CITY           SKY/WX    TMP DP  RH WIND       PRES   REMARKS
HAVRE          CLEAR     75  34  22 N9        29.91R
LEWISTOWN      CLOUDY    77  46  33 E10       29.93R
N BAR RANCH      N/A     72  46  40 SE5       29.99R
CHINOOK          N/A     73  39  29 N8G16     29.91R
$$

MTZ017>020-022>027-061-062-250400-
NORTHEAST MONTANA

CITY           SKY/WX    TMP DP  RH WIND       PRES   REMARKS
GLASGOW        CLOUDY    75  42  30 NE8       29.84R
JORDAN           N/A     80  45  28 NE7       29.85S
SIDNEY         CLOUDY    81  48  31 N8        29.82R
WOLF POINT     PTCLDY    80  42  25 N3        29.82S
MALTA          CLEAR     77  43  29 N10       29.86R
PLENTYWOOD       N/A     72  45  37 CALM      29.86R
POPLAR           N/A     77  45  31 NE6       29.81F
SCOBEY           N/A     69  41  36 N1        29.87R
$$

MTZ028>42-056>058-250400-
SOUTHCENTRAL AND SOUTHEAST MONTANA

CITY           SKY/WX    TMP DP  RH WIND       PRES   REMARKS
BAKER          CLEAR     81  50  33 NE8       29.87R
BILLINGS       MOCLDY    83  45  26 S7        29.88R
LIVINGSTON     MOCLDY    80  40  23 SW25G39   29.95S
MILES CITY     PTCLDY    83  45  26 N10       29.83S
BIG TIMBER     CLEAR     81  37  21 SW21G26   29.96S
FORSYTH          N/A     82  45  26 NE3       29.83S
LAUREL           N/A     82  45  27 CALM      29.89R
$$

REGIONAL REPORTS...DAKOTAS

CITY           SKY/WX    TMP DP  RH WIND       PRES   REMARKS
WILLISTON      CLOUDY    81  46  29 N10       29.83R
MINOT          CLEAR     80  62  54 NW8       29.78R
DICKINSON      CLEAR     82  56  40 N12       29.82R
BEACH            N/A     73  50  43 N7        29.90R
CROSBY           N/A     70  48  46 NW8       29.84R
TIOGA            N/A     73  50  43 N5        29.86R
WATFORD CITY     N/A     79  55  44 NE9       29.83R
BISMARCK       CLOUDY    76  67  73 SE10      29.82R
GRAND FORKS    PTCLDY    72  65  78 S10       29.87R
FARGO          CLEAR     72  63  73 SE12G21   29.89
BUFFALO SD       N/A     87  54  32 E5        29.79
RAPID CITY     CLEAR     81  48  31 NE9       29.84R
$$

REGIONAL REPORTS...WYOMING/IDAHO/WASHINGTON

CITY           SKY/WX    TMP DP  RH WIND       PRES   REMARKS
GILLETTE       CLEAR     79  46  31 N3        29.91R
SHERIDAN       CLEAR     77  50  38 NW6       29.91R
BUFFALO WY     CLOUDY    81  43  26 NW8       29.99R
CODY           CLOUDY    76  41  28 NW6       30.01F
YELLOWSTONE LA   N/A     53  47  79 NW5       30.29S
IDAHO FALLS    CLOUDY    75  53  46 NE3       29.99S
BOISE          CLOUDY    87  47  24 NW15G25   29.84R
SPOKANE        PTCLDY    83  31  15 N6        29.92R
$$

REGIONAL REPORTS...ALBERTA

CITY           SKY/WX    TMP DP  RH WIND       PRES   REMARKS
EDMONTON       PTCLDY    57  54  88 W8        29.93R
CALGARY        PTCLDY    57  43  58 N12       30.04R
LETHBRIDGE     MOCLDY    64  45  48 NE16G26   29.99R
MEDICINE HAT   PTCLDY    68  41  37 NW15G24   29.95R
WATERTON GATE    N/A     63  43  48 N7          N/A
MILK RIVER       N/A     63  41  45 NE13        N/A
$$

REGIONAL REPORTS...SASKATCHEWAN

CITY           SKY/WX    TMP DP  RH WIND       PRES   REMARKS
SWIFT CURRENT  CLEAR     64  39  39 W12       29.88R
REGINA         PTCLDY    63  43  48 W9        29.82S
SASKATOON      MOCLDY    57  50  77 W21G33    29.72F
VAL MARIE        N/A     68  36  30 N13         N/A
ROCKGLEN         N/A     64  41  42 N7          N/A
$$




USA.gov is the U.S. government's official web portal to all federal, state and local government web resources and services.